Theta_e
349 346 346 345 342 341 341 343 342 341 341 341 341 339 335 331 329 328 327 326 326 325 325 326 329 331 332 332 330 330 331 333 333 334 334 335 336 337 339 340 340 340 341 341 342 342 342 342 342 342 342 342 341 341 341 340 340 339 340 340 339 339 340 341 340 338 336 335 336 335 333 331 331 335 338 339 340 341 341 339 337 337 337 338 338
349 347 346 345 344 343 342 342 342 341 341 341 341 339 334 329 327 325 325 325 325 324 326 330 332 333 331 330 330 331 332 333 334 335 335 336 337 339 340 340 340 340 341 342 342 342 342 342 343 343 342 342 342 342 341 341 341 340 340 340 339 339 341 342 342 341 339 337 336 335 334 332 331 333 336 339 341 342 341 337 336 337 337 339 338
348 347 346 345 345 344 343 343 342 342 341 341 340 337 333 330 330 328 327 327 326 327 331 333 332 331 330 330 330 331 332 334 335 337 337 337 338 340 340 339 339 340 341 341 342 343 342 342 342 343 342 342 342 342 342 342 342 341 340 340 339 340 342 343 342 342 341 338 336 336 335 335 334 335 338 341 341 341 339 336 337 337 338 338 337
348 347 346 346 346 345 344 344 343 342 341 342 340 337 335 335 336 335 333 332 331 331 332 331 331 330 330 331 331 332 334 335 336 337 337 338 339 339 339 339 339 340 340 340 341 341 341 341 341 342 342 343 343 343 343 342 342 341 341 340 339 340 342 343 342 342 341 338 335 335 336 336 337 339 341 343 341 340 339 337 338 338 338 338 337
348 347 346 346 346 346 345 344 343 343 342 342 340 338 337 338 339 339 337 336 333 333 332 332 332 331 332 332 332 334 334 335 336 337 338 339 339 338 337 337 338 339 340 339 339 340 340 340 340 340 341 342 343 343 343 342 342 341 341 340 340 340 341 342 343 342 342 339 336 335 336 337 338 340 341 342 342 340 340 339 338 339 339 339 338
348 347 347 347 347 346 345 344 344 344 343 342 341 338 338 340 340 340 338 336 335 335 335 334 334 333 333 333 332 333 333 333 334 336 339 339 338 337 336 336 337 339 340 340 339 339 339 339 339 339 339 341 342 343 343 342 342 341 340 340 341 341 341 341 342 342 342 341 337 334 335 337 339 340 340 342 342 341 340 340 339 340 340 338 337
347 347 347 347 347 345 345 345 344 344 342 341 341 339 339 340 340 340 338 337 337 337 337 335 335 335 334 333 332 332 332 332 333 336 338 337 336 336 334 334 335 338 339 339 339 339 338 338 339 339 339 341 342 342 342 343 343 342 340 341 341 342 342 341 342 342 342 342 337 333 333 336 339 340 340 342 342 341 340 340 340 340 338 337 337
347 347 347 347 346 346 345 345 344 343 341 340 340 339 339 339 340 340 338 338 339 339 338 337 336 335 334 333 332 332 332 332 333 334 335 335 334 334 333 333 335 337 336 336 337 338 338 338 339 338 338 340 341 341 342 342 343 343 342 342 342 343 342 342 342 342 342 341 337 334 334 335 338 340 341 342 341 341 340 340 340 339 338 337 337
347 347 347 346 346 346 346 345 343 342 341 340 340 339 339 339 340 339 338 339 340 339 339 338 337 336 335 334 333 332 332 332 333 334 334 334 334 333 333 334 335 336 335 335 336 337 337 338 338 336 337 338 339 339 340 342 344 343 342 342 342 343 342 341 341 341 341 340 338 335 334 336 337 339 340 340 340 341 340 339 339 339 339 338 337
347 347 346 346 346 346 346 345 343 341 341 341 340 339 339 339 338 338 339 339 339 338 339 339 337 336 336 334 333 332 332 332 333 333 333 334 334 333 334 335 335 335 334 334 335 335 336 336 335 334 336 338 338 338 339 342 343 343 342 342 342 342 341 341 340 340 340 340 339 336 334 336 337 339 339 340 340 341 341 340 339 339 340 338 337
346 347 346 346 347 346 345 344 343 342 342 340 340 340 340 339 338 338 339 339 338 338 338 337 336 336 335 334 333 332 332 332 332 332 333 333 333 333 334 335 335 335 334 335 335 334 335 335 334 334 336 336 337 337 339 341 343 342 343 343 343 342 340 340 340 340 341 341 339 336 334 336 337 338 340 340 340 341 341 340 340 339 340 338 337
346 347 346 347 347 346 345 344 343 343 342 340 340 340 340 339 339 338 339 338 336 337 336 335 335 334 335 334 332 331 332 332 332 332 332 332 333 334 334 336 337 337 336 337 337 335 335 336 336 336 336 336 336 337 338 340 342 343 343 343 343 342 341 339 339 341 341 341 339 334 334 336 338 338 339 340 340 340 340 340 340 339 339 338 338
346 346 346 346 346 346 345 344 344 343 342 340 339 339 340 339 338 338 337 336 335 334 334 335 336 335 335 335 332 331 331 332 332 332 332 332 333 334 335 338 338 338 338 339 338 336 335 335 336 337 337 336 336 337 336 338 342 343 343 343 343 342 341 340 340 340 340 341 340 336 333 336 338 338 339 339 340 340 339 338 338 337 338 338 338
345 345 345 345 345 346 345 344 344 343 342 341 341 341 341 339 338 337 335 334 334 334 336 338 338 337 336 336 335 333 332 332 332 332 331 331 333 334 336 338 339 339 339 339 339 336 335 334 336 337 337 337 337 336 335 336 341 342 343 343 342 342 342 341 341 341 341 341 341 337 334 335 338 339 339 339 338 338 337 335 335 335 336 338 338
344 344 344 344 344 345 345 344 344 343 342 342 343 342 341 340 338 337 336 337 338 338 339 340 339 339 338 338 339 338 335 333 332 332 330 332 334 334 337 339 340 342 341 340 339 335 333 334 336 337 337 337 336 335 335 335 338 342 342 343 342 342 343 341 341 341 341 341 340 337 335 336 337 339 340 339 338 337 337 335 334 333 334 336 337
344 344 344 344 344 344 344 344 344 344 344 343 343 342 341 341 340 340 340 340 340 340 340 340 340 341 340 340 341 341 338 333 332 331 331 334 335 335 337 339 341 343 342 340 339 334 333 335 337 337 337 337 336 336 337 337 339 342 342 343 342 342 342 341 341 341 341 342 341 338 336 336 337 339 340 340 339 338 337 336 334 334 334 335 337
344 344 344 345 345 345 345 344 345 344 344 343 342 342 342 341 341 341 341 340 341 341 341 341 341 341 341 341 341 341 338 334 333 332 333 335 335 336 338 339 341 343 342 340 338 334 335 337 337 337 337 337 338 338 339 340 341 343 342 342 342 341 341 341 342 341 341 342 341 339 337 336 336 338 339 340 340 339 338 336 335 334 334 335 336
343 344 344 345 345 345 345 344 344 344 343 343 342 342 342 342 341 341 341 341 341 342 341 341 341 341 342 341 340 338 335 333 333 334 335 335 335 337 338 339 342 344 342 340 338 336 336 337 337 337 338 337 337 339 341 341 342 343 342 341 341 340 340 340 341 341 340 341 341 340 338 338 337 338 338 339 340 340 338 337 336 335 334 336 336
343 343 343 343 344 344 343 343 343 342 342 342 342 342 342 342 340 341 341 342 342 341 341 341 342 342 342 340 338 336 334 334 335 336 336 334 336 339 339 341 343 344 342 339 338 336 336 336 337 338 339 338 337 340 342 342 343 343 342 342 342 341 341 341 341 341 340 340 340 341 340 339 339 338 337 338 339 339 338 337 337 336 335 335 336
344 343 343 343 344 343 343 343 343 342 342 342 342 342 341 341 340 341 342 342 341 341 342 341 342 342 342 340 338 336 334 336 337 336 336 338 340 340 340 342 343 343 341 338 337 336 336 336 337 338 340 340 340 341 342 342 344 344 343 342 343 344 344 343 344 342 340 340 339 339 341 340 339 339 338 337 338 339 339 338 337 337 337 335 335
344 343 343 344 345 344 343 343 343 343 342 342 341 341 341 341 341 342 342 342 341 342 342 341 342 342 342 341 338 336 334 336 338 338 340 341 341 340 340 341 342 342 341 338 337 337 337 337 337 338 340 341 340 343 344 343 344 345 345 343 343 343 343 344 344 343 343 343 341 339 340 341 339 339 339 337 336 338 339 338 337 337 337 336 335
342 342 343 344 345 343 343 342 342 343 343 342 341 341 343 343 342 342 342 341 341 341 341 340 341 342 341 339 337 335 337 339 339 341 342 341 340 340 340 341 340 341 341 340 338 338 339 340 339 339 341 341 342 344 345 345 343 343 344 341 340 341 341 341 341 343 345 346 345 341 338 340 340 339 340 338 336 336 338 338 337 338 337 337 336
341 342 342 342 341 341 341 341 341 342 342 341 341 342 343 343 342 341 341 341 341 341 340 339 340 339 338 337 337 338 341 341 339 341 341 340 341 341 342 343 342 341 342 341 339 339 340 342 343 343 343 344 345 345 344 346 343 342 341 336 337 339 338 339 339 340 343 345 347 343 338 338 339 340 341 340 338 335 336 338 337 338 338 337 337
341 341 341 341 340 340 340 340 341 341 341 341 340 341 341 341 341 341 341 340 340 340 339 338 338 337 337 337 339 342 342 340 339 342 341 340 342 342 343 344 344 343 342 343 342 341 342 344 345 345 345 345 345 344 344 346 344 341 338 334 337 339 337 338 339 339 340 342 344 344 343 341 338 339 341 341 339 337 336 336 337 338 338 337 337
340 340 340 340 340 340 339 339 339 340 340 340 339 340 340 340 341 341 340 340 339 339 338 338 338 338 339 338 339 342 342 339 340 342 341 342 343 342 345 345 345 345 344 345 345 344 344 345 346 346 346 345 344 344 345 346 343 341 339 338 339 340 340 339 339 338 338 338 339 340 342 343 340 338 340 341 340 339 337 336 337 338 338 338 337
340 340 339 339 340 340 339 338 339 340 340 339 339 339 340 340 340 340 339 339 339 338 338 339 340 340 339 339 339 341 341 341 342 342 343 344 343 344 346 345 346 346 345 346 346 345 345 346 346 346 347 346 343 343 346 345 341 340 340 339 339 340 340 339 337 337 338 337 337 337 337 339 341 339 339 341 341 341 339 336 336 337 337 337 337
341 339 338 339 339 339 338 339 340 340 340 339 339 339 340 340 339 339 338 338 338 338 338 339 340 341 340 339 341 342 342 343 344 344 344 343 343 345 345 345 345 345 345 345 346 346 345 345 346 346 345 345 344 344 345 344 340 339 338 338 339 339 338 337 336 337 338 337 337 337 336 337 340 341 340 340 341 341 340 337 335 336 337 337 336
340 338 338 339 340 339 339 341 341 340 341 340 340 339 339 340 340 339 338 339 339 338 339 340 341 342 341 340 342 344 344 344 345 345 345 345 344 345 346 346 344 345 345 345 345 346 346 345 346 346 344 344 344 342 344 343 339 338 338 339 339 338 336 336 336 337 338 338 338 338 337 336 338 341 341 339 340 341 341 340 338 336 336 336 336
338 338 338 340 341 340 340 341 341 341 342 341 341 340 339 341 340 339 340 340 340 339 340 341 342 342 341 340 343 345 346 347 347 347 346 346 346 346 347 346 345 345 346 345 345 345 345 345 346 346 345 345 343 341 343 341 339 339 339 339 339 339 337 336 337 336 337 338 339 337 336 337 338 340 341 340 340 341 341 341 340 338 336 335 335
339 339 339 341 341 340 341 341 340 342 343 342 342 341 339 341 341 341 342 341 341 341 341 341 343 343 342 341 343 345 346 348 348 348 347 347 347 347 347 346 345 345 345 345 345 345 345 344 345 345 346 346 343 342 343 340 338 339 339 339 339 339 338 337 337 336 336 337 338 337 337 337 337 339 341 340 339 340 341 341 340 340 338 336 335
343 342 342 342 341 340 341 341 340 343 344 344 343 342 340 341 343 343 343 342 342 343 343 343 344 344 344 343 343 344 344 346 347 347 347 347 347 348 347 346 346 345 345 345 345 345 344 343 343 343 346 346 345 343 341 339 339 338 339 339 339 338 337 336 336 336 336 337 338 338 338 338 337 338 340 340 339 339 341 341 340 341 340 338 337
347 344 343 343 341 339 340 341 341 344 345 344 344 344 341 342 344 344 344 344 343 344 344 345 346 346 347 346 344 343 343 343 344 343 342 343 344 346 347 346 346 346 345 344 345 344 342 342 342 344 346 346 345 343 339 337 337 338 339 338 338 337 336 336 336 336 336 336 338 338 337 338 337 337 339 340 339 339 340 340 340 340 340 339 339
347 344 343 343 340 339 341 342 343 344 345 343 343 343 342 343 344 345 345 345 345 345 345 348 349 349 350 349 348 347 345 344 344 343 341 341 341 343 345 344 345 345 345 344 344 343 341 341 342 345 346 346 345 342 338 336 335 336 338 338 337 336 336 337 336 336 336 336 338 338 337 337 337 336 337 338 339 340 340 340 340 340 340 340 340
346 346 345 343 340 339 341 344 344 344 344 343 342 343 343 343 345 345 345 345 346 346 347 349 351 351 351 350 350 350 350 348 347 346 344 341 341 342 343 342 343 344 345 345 344 343 341 340 342 344 346 346 345 341 338 338 337 336 336 338 337 335 336 336 337 338 337 337 337 337 338 337 337 336 336 337 338 339 339 340 340 340 341 341 340
347 346 346 344 341 340 341 343 344 343 343 343 343 343 343 343 345 346 346 346 346 347 349 350 351 352 351 351 351 351 351 351 350 349 346 343 341 342 342 341 341 342 344 345 345 343 341 341 342 344 345 345 344 340 339 340 340 339 336 337 337 335 336 336 337 339 337 337 336 336 338 337 338 337 337 337 337 338 339 339 340 340 340 340 340
347 345 344 344 343 341 340 341 342 342 342 344 343 343 344 344 345 347 347 346 346 347 349 350 350 351 352 351 351 351 351 352 352 350 347 344 342 343 343 342 341 341 343 345 344 343 342 341 343 345 345 345 344 340 339 340 341 340 337 337 337 335 335 335 337 338 337 338 337 337 338 337 339 339 337 337 336 337 338 338 339 339 340 340 340
348 346 346 346 344 341 339 339 340 340 341 344 344 343 344 346 346 346 346 346 345 346 349 350 349 350 351 351 351 351 351 352 352 350 347 344 343 343 343 342 340 340 343 344 344 344 344 343 344 346 345 345 344 340 339 339 338 341 339 337 337 335 335 334 334 337 338 339 338 338 339 337 338 339 338 337 335 336 336 337 338 338 339 339 339
349 348 349 350 347 344 340 339 340 340 342 343 344 344 344 345 347 348 347 347 345 346 350 351 349 348 348 349 350 351 352 352 352 351 348 345 344 344 343 342 340 340 342 343 344 344 344 344 344 345 345 345 346 343 340 336 334 339 339 336 337 335 335 334 333 335 338 339 339 339 339 337 337 337 337 337 337 338 337 337 338 338 338 339 339
350 349 350 351 350 347 343 341 341 342 343 344 345 344 344 347 349 349 348 348 346 348 351 351 349 348 347 348 350 351 352 351 352 351 348 346 345 344 343 341 340 341 342 342 343 344 345 345 344 345 345 341 338 335 332 330 332 338 337 333 335 337 337 334 332 335 337 337 338 339 338 336 336 335 335 335 336 338 339 338 338 339 338 338 338
350 350 350 352 351 350 348 345 342 342 343 345 346 344 346 349 350 350 348 348 347 349 351 351 350 348 348 348 349 351 351 351 351 350 349 348 346 344 343 341 341 341 342 342 343 345 345 344 345 343 336 330 329 329 329 330 333 337 334 331 335 338 336 333 333 336 337 336 337 338 337 335 334 334 333 333 333 335 337 338 338 339 338 337 338
350 350 351 351 351 351 350 348 345 345 344 344 345 344 346 349 349 348 346 344 347 349 350 351 351 350 349 349 349 350 350 351 351 351 350 349 348 346 344 342 342 342 343 345 346 346 345 344 343 335 327 329 332 332 331 332 333 335 335 334 336 337 333 331 335 337 336 335 336 336 335 334 332 331 331 332 331 331 332 334 337 337 337 338 338
350 350 351 351 351 352 351 349 347 348 347 345 344 344 345 345 345 344 342 341 345 346 347 348 350 351 350 349 350 350 350 351 351 350 349 349 350 348 345 343 343 344 344 346 346 345 344 342 336 327 328 334 335 334 334 334 334 333 335 337 336 335 334 334 337 337 336 334 334 334 333 332 330 329 331 330 329 329 327 328 332 331 332 333 334
350 351 351 352 351 352 351 350 350 349 349 349 347 344 342 341 340 339 339 339 341 342 343 345 347 350 351 349 350 350 350 351 351 350 349 350 350 347 345 344 344 345 345 345 345 344 342 337 328 325 331 334 333 336 336 336 337 336 337 337 335 334 335 336 336 337 336 333 332 332 331 329 328 328 329 328 326 326 325 325 325 324 325 326 328
351 351 352 352 351 351 351 351 351 350 349 350 350 347 342 341 340 339 338 338 340 340 342 344 346 348 349 348 349 349 350 351 351 351 350 350 349 346 345 345 345 345 345 345 344 342 337 327 324 329 333 334 335 337 335 334 337 338 337 336 334 334 336 336 335 335 335 333 331 331 329 328 328 328 328 327 325 325 325 325 323 322 321 322 323
350 351 351 352 351 351 350 350 351 351 350 350 351 350 346 343 343 343 342 342 343 343 343 343 344 346 346 345 346 348 349 350 351 352 350 350 348 346 345 345 345 345 345 345 343 338 329 323 327 333 335 336 337 336 333 333 336 337 336 335 335 335 336 336 334 333 333 332 331 330 330 328 328 329 328 327 327 327 327 327 326 325 324 323 323
349 349 350 351 352 351 351 350 351 351 351 350 350 350 349 346 343 342 343 343 344 343 342 340 341 342 342 343 344 346 348 350 351 351 349 348 348 347 346 346 345 346 345 344 341 333 323 325 333 335 336 338 338 336 334 333 335 335 334 334 334 333 335 336 335 333 332 331 331 331 330 330 329 329 329 329 329 329 330 329 328 328 328 327 326
348 348 349 350 351 352 352 350 350 351 351 350 350 350 350 348 344 340 339 340 341 341 340 339 340 340 340 342 344 346 349 350 351 350 348 347 348 347 347 346 346 345 344 341 336 327 322 329 337 337 336 337 337 337 335 332 333 333 331 331 333 333 335 337 336 334 332 331 332 332 331 330 330 329 330 330 330 330 330 330 330 330 330 329 328
348 349 349 350 351 351 352 351 350 350 351 351 351 350 349 348 345 342 340 340 340 340 341 341 340 341 342 344 347 348 349 350 351 349 347 347 347 347 347 346 345 344 342 338 331 324 322 329 336 338 338 337 337 336 334 332 334 335 330 327 332 335 336 338 337 335 334 333 334 333 331 331 330 330 330 330 330 330 330 330 331 331 330 330 329
349 349 349 350 350 351 351 351 350 350 351 351 351 351 349 347 345 342 340 340 341 341 342 342 341 343 346 348 349 349 349 349 350 348 348 347 347 347 347 346 344 342 339 335 329 326 326 327 331 337 338 337 337 337 336 332 332 335 332 327 332 336 336 337 337 335 335 334 334 333 332 331 331 331 331 331 331 330 331 331 331 332 331 330 330
349 349 349 350 350 351 351 350 351 351 351 351 351 351 350 349 346 343 341 340 341 342 343 343 342 344 347 350 350 350 349 348 348 348 348 348 348 348 346 345 342 339 337 335 331 328 326 325 326 333 336 336 336 335 335 331 329 333 334 330 332 334 334 336 336 335 334 334 333 333 332 331 331 331 331 331 331 331 332 332 332 332 331 331 331
349 349 350 350 350 351 351 351 352 352 352 352 351 351 351 350 347 343 340 339 340 342 343 343 343 344 347 349 350 351 349 347 347 349 349 349 350 347 345 344 341 338 338 337 333 328 325 325 327 329 330 333 335 333 332 331 329 331 332 333 334 333 332 334 333 333 332 332 333 332 333 332 331 332 332 331 332 332 332 332 332 332 332 331 331
Wind_Speed
24 26 27 30 30 30 30 29 29 29 27 28 27 27 28 29 29 29 29 29 29 30 31 31 29 27 26 24 22 21 20 19 19 19 18 17 17 16 16 15 15 14 14 14 14 14 14 15 15 15 14 14 13 12 11 10 10 9 9 10 10 10 10 10 11 11 11 11 10 11 10 9 9 10 10 10 10 10 10 9 10 11 12 12 12
26 26 27 29 30 30 30 30 29 28 28 27 27 27 28 29 29 29 30 30 31 31 31 29 27 26 25 23 21 20 19 18 18 18 18 17 16 16 15 15 14 14 13 13 13 14 14 14 14 14 13 13 12 12 11 10 10 9 8 9 10 10 10 10 10 11 11 11 10 10 11 10 10 10 10 10 10 10 10 10 10 11 12 12 11
27 27 28 29 30 31 30 30 29 28 28 27 27 27 28 28 29 30 30 30 30 30 29 27 26 25 23 21 20 19 19 18 17 17 17 16 15 15 15 14 14 14 13 13 12 12 13 13 13 13 12 12 11 11 11 10 10 9 8 8 9 10 10 10 10 10 10 11 11 10 10 10 10 10 10 11 10 10 10 11 11 12 12 12 11
28 29 30 30 30 31 30 29 29 28 28 27 27 27 28 28 28 29 29 29 28 28 27 26 25 23 21 20 19 19 18 17 16 16 16 15 14 14 14 14 13 13 13 12 12 11 12 12 12 12 11 11 11 11 10 9 9 9 8 8 8 9 9 10 10 10 10 11 11 10 10 10 10 10 9 11 11 11 11 11 11 12 12 11 12
29 30 30 31 30 29 30 29 29 28 28 28 27 28 28 27 27 28 28 28 27 26 26 25 24 22 20 20 19 18 17 16 15 14 14 14 14 14 14 13 13 12 12 11 11 11 11 11 11 11 10 10 10 10 9 8 8 9 8 8 8 9 9 9 9 10 10 10 11 10 10 10 10 10 10 11 12 12 12 12 11 11 11 11 12
29 30 30 31 31 30 30 29 28 28 28 28 28 28 28 27 27 27 27 27 26 25 24 23 22 20 19 18 18 17 16 15 14 13 13 13 13 13 13 13 12 11 11 10 10 10 10 10 10 9 9 9 10 9 9 8 8 8 8 9 9 8 8 8 9 10 10 10 11 11 10 10 11 11 10 11 12 12 12 12 11 11 11 10 11
29 31 31 31 31 31 30 29 28 27 28 28 28 28 27 27 27 27 26 26 25 24 22 21 20 19 18 17 16 15 14 13 13 13 12 12 12 13 12 12 11 11 10 10 10 10 10 9 9 9 9 8 8 8 8 8 8 8 8 9 9 9 9 9 9 10 11 11 10 11 11 11 11 12 11 10 11 12 12 11 11 11 10 10 10
30 31 32 31 30 30 29 29 28 28 28 28 28 28 27 27 26 26 25 25 23 22 21 20 18 17 16 15 14 13 12 12 13 12 12 11 12 12 12 11 10 10 10 11 11 11 10 9 9 8 8 8 8 7 7 8 8 8 8 9 9 9 9 9 10 11 11 11 11 11 11 11 11 11 11 10 11 11 12 11 11 10 10 10 10
31 31 32 32 31 29 29 28 28 28 28 28 28 28 27 26 26 25 24 23 22 20 19 18 16 15 14 13 12 11 11 12 12 12 10 10 11 11 10 10 10 10 11 12 12 11 11 10 9 9 8 8 8 7 7 8 8 8 8 8 9 9 9 9 10 11 11 11 11 11 11 11 11 11 11 10 11 11 11 11 11 10 10 10 10
31 32 32 31 31 29 29 29 29 29 28 28 28 27 27 26 26 25 23 22 20 19 17 16 15 14 13 12 11 10 10 11 12 10 9 9 10 9 9 9 10 11 11 12 11 11 10 10 10 9 9 9 8 7 7 7 8 8 9 9 9 8 8 8 9 10 10 11 11 11 10 10 10 11 11 10 10 10 11 12 11 10 10 10 9
31 32 32 31 31 29 29 28 29 28 28 28 27 27 26 26 25 24 22 20 19 17 16 14 14 12 11 11 11 10 10 11 10 9 9 9 8 8 9 9 10 11 11 11 11 10 9 9 10 10 10 10 9 9 9 8 8 8 9 9 9 9 8 8 9 9 9 10 10 10 10 10 11 10 11 11 10 10 10 11 11 10 10 10 9
30 32 32 31 30 29 28 28 28 27 27 27 27 26 25 24 24 23 21 20 19 16 15 13 12 11 10 10 10 10 9 9 9 8 8 7 7 7 8 10 11 11 10 11 11 10 9 9 10 11 11 10 11 11 10 9 8 8 9 9 9 9 8 8 8 8 9 9 8 9 10 11 11 10 11 11 11 11 10 10 10 10 10 9 9
30 32 32 30 29 28 27 26 26 26 26 27 26 25 24 23 23 22 21 19 18 15 14 12 11 11 10 10 10 9 8 8 8 7 7 7 7 7 8 10 10 10 10 10 11 10 9 10 10 11 11 11 11 12 11 10 9 9 9 9 10 10 8 8 7 8 9 9 7 8 9 11 10 10 11 11 11 11 10 10 9 9 9 10 9
31 32 31 30 29 27 26 26 26 26 26 25 25 24 23 23 22 21 20 18 17 15 14 12 12 12 11 10 9 9 8 8 7 6 6 7 7 7 8 9 9 9 9 10 10 10 10 10 11 11 11 11 12 11 11 10 9 9 9 9 10 10 9 8 7 7 8 8 7 6 8 10 10 10 10 10 10 10 10 9 9 9 9 10 10
32 32 31 30 30 27 27 26 26 26 25 25 24 23 23 22 21 20 19 17 16 16 14 13 13 12 12 11 9 8 8 7 6 5 6 6 6 7 8 9 9 9 9 9 10 10 10 10 11 12 12 12 12 11 11 10 9 9 8 8 9 10 9 8 8 7 8 8 7 6 7 9 9 10 10 10 10 10 10 9 8 8 9 10 11
31 31 32 31 30 29 27 26 26 25 25 24 23 23 22 21 20 19 18 17 16 16 15 13 13 12 12 10 9 8 7 7 6 5 6 6 7 7 8 8 8 8 9 9 9 10 11 11 11 12 13 13 12 12 12 11 9 8 7 8 9 9 8 7 8 7 7 7 6 6 6 7 8 9 9 10 10 10 10 9 9 9 9 10 11
30 30 31 30 29 28 27 25 25 24 24 23 22 21 21 20 19 18 17 17 16 16 15 13 13 12 11 10 9 8 8 7 6 5 6 7 7 7 7 7 7 7 8 9 9 10 11 12 12 12 13 13 12 11 12 11 9 8 8 8 8 9 8 7 7 7 7 7 7 6 5 6 7 8 8 9 10 9 9 10 10 9 9 10 10
29 30 30 29 29 28 27 26 25 24 24 22 21 21 20 20 19 19 18 17 16 15 14 13 12 12 11 10 9 9 8 7 6 6 6 7 7 7 6 6 6 7 8 8 9 10 11 12 12 11 12 11 10 10 11 10 9 9 9 8 8 8 8 8 7 6 6 7 7 7 6 5 5 7 7 8 9 9 9 10 10 10 10 10 10
29 29 28 28 28 27 27 26 26 25 24 23 22 21 21 21 20 19 18 17 16 15 14 13 12 11 11 10 10 9 8 7 6 6 6 6 6 6 6 7 7 8 8 8 9 10 11 11 11 11 10 8 8 9 10 10 9 8 8 7 7 6 6 5 6 6 7 7 7 7 6 5 5 6 6 7 8 9 10 10 10 10 11 11 11
29 30 29 29 28 27 27 26 26 26 25 24 23 22 22 21 20 19 17 17 15 14 14 13 12 12 11 10 10 9 8 7 6 6 6 6 6 6 6 8 8 8 8 9 10 11 11 11 10 9 8 5 5 7 8 8 8 8 7 6 5 6 7 5 4 6 7 8 7 6 6 6 6 5 6 7 7 8 10 10 10 10 11 11 11
31 31 30 30 29 28 27 26 26 25 25 24 23 23 21 20 19 18 17 16 15 14 14 13 13 12 11 11 10 9 8 7 6 6 6 6 6 6 7 8 8 8 8 8 10 10 10 9 8 7 5 3 4 6 7 7 7 7 6 6 5 6 8 8 5 4 5 6 6 6 6 6 6 6 6 7 7 8 9 10 10 11 11 11 11
34 33 31 30 29 29 27 26 26 25 25 24 23 22 21 21 19 19 17 16 16 15 14 13 13 12 12 11 10 9 8 7 6 6 5 5 5 6 7 8 8 8 7 7 8 9 8 7 7 6 5 3 4 6 7 7 7 6 6 5 5 6 8 9 8 4 3 3 3 4 6 6 6 6 6 7 8 8 9 10 10 10 11 11 12
36 34 32 30 28 28 27 26 25 25 24 23 23 22 21 21 19 19 18 17 16 15 14 13 12 12 11 11 10 9 8 7 6 6 4 5 5 6 7 7 6 6 7 7 7 6 6 6 7 6 5 4 4 4 6 6 6 5 5 5 5 6 7 8 8 6 4 2 2 3 5 5 6 7 7 7 8 8 9 10 10 10 11 11 12
36 34 32 30 28 27 26 26 25 24 24 23 23 22 21 20 19 18 17 17 15 15 14 13 13 12 12 11 10 9 7 6 6 6 5 5 5 5 6 6 5 5 6 7 6 5 6 6 6 5 4 3 3 4 6 6 6 4 4 5 7 8 8 8 8 7 4 2 2 1 2 4 5 6 7 8 8 8 9 9 10 10 10 11 11
34 33 32 30 28 27 27 27 25 24 24 23 23 22 21 20 19 18 17 16 15 15 15 14 14 13 12 11 10 9 7 7 6 6 6 6 5 4 5 6 5 4 5 6 6 5 6 6 4 4 3 2 3 4 5 6 4 3 3 4 6 6 5 6 8 7 5 3 1 1 1 2 4 6 6 8 8 8 9 9 10 10 10 11 11
34 33 33 30 29 28 27 27 26 25 24 23 23 21 21 20 19 18 18 17 16 16 16 15 14 13 12 11 10 8 8 8 7 7 6 5 4 3 5 5 3 3 4 5 5 4 4 4 3 3 2 1 3 3 3 4 3 2 2 4 4 4 2 3 6 7 5 4 3 2 0 2 3 5 6 7 8 9 9 9 10 10 10 10 11
35 33 32 30 30 29 28 28 27 26 25 24 23 22 21 20 19 19 18 18 17 17 16 15 13 12 12 11 10 8 9 9 8 7 6 5 4 4 4 3 2 3 4 4 4 4 4 3 2 2 1 0 2 2 2 3 3 3 3 4 3 3 3 4 6 6 5 6 6 5 3 0 1 4 6 7 8 9 10 10 10 10 10 10 10
35 34 32 31 31 30 30 29 27 27 25 25 23 22 21 20 20 19 18 18 17 17 15 14 13 12 11 10 10 9 10 9 8 7 6 5 5 4 4 2 2 3 3 2 2 4 3 2 2 2 2 1 2 2 2 1 3 6 5 4 3 3 4 5 4 3 3 4 5 5 4 2 0 2 5 7 8 9 10 11 10 10 11 11 10
35 34 33 33 31 30 31 29 28 27 25 25 23 22 21 21 20 19 18 18 17 16 14 13 13 12 11 11 11 10 10 9 7 6 6 6 4 3 2 1 1 2 3 2 2 3 2 2 2 1 2 3 3 2 2 2 4 5 5 5 3 1 3 3 2 2 1 1 3 5 5 5 2 1 4 6 7 9 10 11 11 11 11 11 11
35 33 33 34 32 31 31 29 29 27 25 25 23 23 22 21 20 19 18 18 17 15 15 14 13 13 11 11 11 10 10 9 8 7 6 5 3 2 2 1 2 3 3 3 3 4 3 3 2 1 2 4 4 1 2 4 6 5 5 5 4 2 3 3 2 2 0 2 2 5 6 6 5 2 3 4 5 7 9 10 11 12 12 11 11
34 33 33 32 31 32 31 29 29 27 25 24 23 23 22 21 20 19 18 17 16 15 15 14 13 13 11 11 11 10 10 9 8 7 6 5 3 3 3 2 3 3 3 4 4 5 5 4 2 2 3 4 3 2 4 6 6 4 4 3 4 3 2 1 2 2 2 4 3 5 4 3 5 4 3 4 4 5 7 9 10 11 12 12 12
34 33 32 31 32 32 31 29 28 27 26 24 23 23 22 21 20 19 18 17 17 16 16 15 14 13 12 11 11 11 11 10 9 8 7 5 4 4 5 4 4 4 4 5 5 5 4 3 2 2 3 3 2 4 6 6 5 5 5 4 4 3 1 2 2 3 3 6 6 4 2 1 2 3 3 5 5 6 7 7 8 10 11 12 12
35 32 31 31 32 32 31 29 28 28 26 25 24 23 22 21 20 20 19 18 18 17 16 16 15 14 13 12 12 12 12 11 9 8 8 7 6 6 6 6 6 6 6 5 5 4 3 3 2 3 4 4 4 6 7 7 5 5 6 5 5 4 5 4 1 1 3 6 5 4 3 2 2 0 1 4 6 7 7 7 8 10 12 12 13
34 33 32 31 31 32 31 30 29 29 27 25 24 23 23 22 21 20 19 19 19 17 16 15 14 14 13 13 13 12 11 10 9 8 9 8 8 8 8 7 7 7 6 5 4 4 4 4 4 5 5 5 6 8 7 6 5 3 5 7 5 4 5 3 0 2 2 3 3 3 3 2 3 2 1 2 5 7 9 10 10 10 12 12 13
33 34 33 31 30 31 31 31 30 29 28 26 24 24 23 23 22 20 20 19 18 17 16 15 14 13 13 12 12 12 10 10 10 9 9 10 9 9 8 8 8 7 7 6 5 5 6 6 6 5 6 6 6 8 6 5 4 3 5 8 6 4 4 2 2 3 3 3 2 2 1 1 1 2 2 2 4 6 8 10 9 9 10 10 12
33 32 32 31 30 30 31 32 31 30 29 27 25 24 23 23 22 21 20 18 18 17 17 16 15 14 14 13 13 12 11 10 11 11 11 11 11 10 9 8 9 8 7 7 6 6 6 7 7 5 6 6 8 9 6 5 6 5 8 8 7 5 5 3 3 2 1 3 4 4 4 5 3 1 3 4 5 5 5 6 6 8 9 9 11
32 31 31 31 31 31 32 32 32 31 30 28 26 26 24 24 23 22 20 18 17 17 17 18 17 16 15 15 14 13 12 11 12 11 11 11 12 10 9 10 10 8 8 7 6 6 7 8 7 5 5 7 9 10 9 7 6 7 9 7 7 7 6 5 4 4 2 1 2 4 6 9 8 4 2 3 4 5 5 4 4 6 8 10 11
31 30 31 31 30 31 32 32 32 31 30 29 28 27 26 24 23 22 20 19 18 17 17 18 19 18 16 16 15 13 13 12 12 12 10 10 11 11 10 11 10 9 7 6 6 6 8 8 7 5 6 7 9 11 12 12 8 8 9 8 7 7 6 5 5 5 4 3 3 4 6 8 9 7 5 2 1 3 5 5 4 5 7 9 10
33 31 31 30 30 29 31 32 32 31 31 29 29 28 27 25 23 23 22 21 20 20 19 19 20 19 17 16 15 14 13 13 13 12 11 10 10 11 11 11 10 8 7 7 7 7 8 8 6 6 7 7 8 9 10 9 10 10 8 8 7 6 6 6 6 7 6 5 5 5 5 3 4 5 5 4 3 1 3 4 5 6 7 8 9
34 33 32 31 31 30 30 31 32 31 31 31 31 30 29 27 25 24 24 23 22 21 20 20 21 19 18 16 16 15 14 14 13 13 13 11 10 10 11 11 10 8 8 8 9 9 8 7 7 7 7 7 5 7 6 6 11 10 8 9 8 6 6 6 8 8 7 7 8 8 6 2 1 1 2 2 2 1 1 2 3 5 6 7 8
36 35 34 34 33 32 31 31 31 31 31 32 33 33 31 29 28 28 27 26 24 22 21 21 21 20 19 17 16 16 15 14 13 13 13 12 11 10 11 11 9 9 9 9 10 9 8 8 8 8 6 7 8 8 7 8 11 12 10 9 8 6 5 8 11 7 5 8 9 8 7 3 1 3 2 2 2 1 1 2 4 5 6 6 7
40 38 37 36 35 34 33 32 30 30 31 31 33 34 33 31 30 29 28 27 25 24 23 22 21 21 20 18 17 16 15 14 13 13 13 13 13 12 11 10 9 9 10 10 10 9 9 10 9 8 9 11 10 8 8 8 10 12 12 9 8 7 8 11 10 4 5 9 9 8 6 3 1 2 1 2 2 2 2 1 4 4 4 5 5
42 41 39 37 36 36 36 34 32 32 31 31 33 34 33 31 29 28 27 26 25 24 22 21 21 21 20 19 17 17 16 14 13 13 14 14 14 13 12 11 10 10 11 10 10 10 10 11 9 9 12 12 11 9 8 8 9 12 11 10 9 9 9 9 7 5 8 10 8 6 3 1 1 2 1 2 2 2 2 1 2 1 2 3 4
43 43 42 39 38 39 39 38 36 35 33 32 33 32 32 32 30 27 25 24 24 23 22 21 21 22 21 20 19 18 16 15 14 14 14 15 15 14 12 11 11 11 11 11 11 10 10 11 10 13 13 11 10 9 9 9 9 11 11 10 10 9 8 7 5 6 10 12 8 4 2 1 1 2 1 1 1 2 3 3 3 3 2 1 1
44 44 44 43 41 41 40 40 39 37 36 34 33 32 31 32 32 30 27 26 26 25 25 25 24 24 23 22 21 19 18 16 16 15 15 15 15 15 13 12 12 12 11 11 11 10 10 10 13 14 13 12 11 10 10 10 9 10 9 9 10 9 8 8 7 8 12 13 9 5 3 2 1 1 1 1 2 3 4 5 6 6 5 5 5
47 46 45 45 43 42 41 41 41 40 39 37 35 33 32 33 34 34 32 31 31 30 30 28 27 26 25 23 22 20 20 18 18 17 15 15 15 15 14 14 14 13 12 12 11 11 11 12 13 13 13 12 12 11 11 10 9 9 9 10 10 9 10 11 10 11 13 13 9 6 4 4 3 2 0 2 2 1 3 5 6 7 8 9 8
48 47 46 46 45 43 41 41 42 43 42 40 38 36 34 33 34 35 34 33 33 32 30 28 26 26 24 23 22 21 21 20 19 18 17 16 16 15 16 16 15 14 13 13 12 12 12 12 13 12 11 12 13 12 11 10 8 8 9 11 12 11 10 12 11 12 14 13 9 6 6 6 6 3 1 1 1 1 3 5 6 8 10 10 8
49 48 47 47 46 45 43 42 43 45 44 42 40 39 37 35 34 34 34 34 33 31 29 26 25 24 23 22 22 21 20 20 20 19 18 17 17 17 17 17 15 15 14 13 12 12 12 12 13 10 9 11 13 12 11 10 8 7 9 11 12 12 11 11 12 12 14 13 9 8 10 9 8 5 3 3 3 3 3 5 7 9 10 9 8
51 50 49 48 47 47 46 44 44 45 45 44 42 41 40 37 35 34 35 34 33 30 28 25 24 23 23 22 21 20 19 20 20 19 19 19 19 18 18 17 17 16 14 13 12 12 11 11 11 10 9 11 13 13 11 11 10 8 8 11 12 13 13 12 12 11 12 13 10 10 12 11 11 8 5 5 5 3 3 5 7 9 9 8 8
53 51 50 49 48 48 48 47 46 46 45 45 45 43 42 40 38 36 35 34 33 31 28 26 25 24 24 23 23 21 20 20 20 20 21 21 20 19 18 18 17 15 14 13 12 11 10 9 10 10 10 12 14 15 13 13 12 10 9 11 12 13 14 15 15 13 12 12 9 8 10 10 11 10 7 7 6 4 4 6 8 9 10 10 9
54 53 51 50 50 49 49 48 48 47 46 45 45 45 44 43 41 39 37 35 34 33 31 28 27 26 25 25 24 23 22 22 21 22 23 22 21 20 19 18 17 15 14 12 11 10 10 9 9 10 11 14 15 15 16 15 14 12 10 11 12 13 13 15 16 14 12 13 11 9 10 10 10 9 8 7 6 5 5 7 9 10 11 10 10
Wind_Direction
147 143 140 139 141 144 144 141 140 142 140 138 136 135 137 137 136 137 138 137 135 132 130 130 131 129 128 127 127 123 116 113 111 108 105 102 99 97 95 91 88 84 83 82 82 82 83 84 84 84 83 84 86 93 101 104 103 101 101 101 100 99 97 94 91 86 82 83 87 92 97 112 124 123 119 120 125 126 122 122 122 120 113 106 105
149 146 145 144 144 145 144 143 142 144 141 140 139 138 138 137 136 135 135 135 133 132 132 132 132 131 129 128 124 117 113 112 110 107 105 102 98 96 93 89 86 84 83 80 80 79 79 79 80 81 80 80 82 87 91 95 98 98 99 101 102 101 99 97 94 90 85 82 83 92 96 104 118 124 123 123 125 125 123 123 124 120 113 108 105
149 149 150 148 148 146 145 144 145 146 145 143 141 140 139 136 135 134 135 134 134 133 133 134 132 130 128 126 120 115 112 111 109 106 104 101 99 95 91 86 83 82 81 78 77 75 75 74 75 77 78 78 78 81 85 89 94 95 96 98 104 102 99 98 96 94 90 84 82 89 98 105 114 121 126 127 127 125 122 124 124 119 113 110 107
151 150 153 152 150 147 147 147 147 149 148 146 143 142 139 138 136 135 135 135 135 135 134 134 131 128 127 123 117 115 113 112 109 106 104 102 99 93 87 81 79 79 79 76 73 71 70 70 72 73 74 75 76 79 84 88 92 94 95 98 105 104 99 97 96 98 96 89 84 87 95 104 111 117 125 127 128 129 126 124 123 118 114 111 109
151 151 153 152 150 149 149 150 150 150 150 148 145 143 141 140 137 136 136 136 136 136 135 133 129 127 124 120 117 116 114 112 109 106 106 103 98 91 84 78 76 76 76 74 71 69 68 67 68 68 68 72 74 76 78 83 88 91 96 100 105 106 104 99 94 97 103 97 87 87 94 102 108 112 119 122 126 130 128 126 123 118 115 114 110
151 151 153 152 151 151 151 152 152 152 152 150 147 145 143 142 139 138 138 138 138 136 135 133 130 126 122 119 117 118 114 113 109 107 107 102 96 90 82 77 75 75 74 71 70 69 67 66 66 67 66 68 70 72 74 77 82 87 91 99 107 110 107 100 94 95 105 103 91 90 93 99 106 110 116 121 125 129 128 127 126 121 117 114 110
151 151 154 153 152 152 153 153 153 153 152 151 149 147 146 145 142 141 141 140 140 137 137 134 130 126 121 119 119 119 116 113 108 108 106 100 95 88 79 72 71 72 71 66 66 67 67 66 67 68 68 69 67 68 71 74 80 86 87 93 104 109 104 98 97 99 105 104 94 91 93 98 104 109 114 117 122 127 130 130 127 123 119 114 110
152 152 154 153 153 154 154 154 154 153 151 151 150 150 149 148 146 144 144 143 141 140 139 136 132 129 124 122 122 121 120 114 109 108 103 100 94 85 76 68 66 65 63 60 60 63 64 64 67 69 69 69 67 66 68 70 77 84 88 92 99 105 100 96 99 101 104 106 98 92 94 99 105 109 111 115 120 126 131 132 128 124 120 117 111
154 154 154 154 154 155 155 155 154 154 152 152 152 152 152 151 149 147 147 146 144 144 141 138 135 131 128 127 127 126 124 117 110 107 104 102 94 84 76 67 63 61 58 56 57 61 63 63 68 69 68 70 68 67 67 68 72 80 90 95 103 106 102 100 101 101 103 108 104 96 96 99 103 107 110 114 120 127 132 132 130 127 123 118 114
155 155 155 154 154 157 156 156 156 156 155 154 155 155 155 154 153 152 151 149 149 148 144 142 138 134 132 131 132 133 129 119 111 107 105 100 93 85 75 67 62 60 59 55 57 64 66 68 71 70 70 75 73 71 73 75 77 85 96 102 109 112 111 111 107 104 106 112 111 104 101 102 104 108 113 116 121 129 134 134 132 131 127 121 117
154 156 155 154 155 158 157 157 157 158 158 157 158 158 158 157 157 156 155 155 155 153 149 147 144 140 139 138 139 139 132 121 114 109 105 100 96 85 71 64 60 57 59 56 59 68 71 73 75 73 76 81 79 77 79 84 86 88 97 105 111 112 113 113 109 108 109 114 115 112 112 113 109 110 115 118 122 126 132 134 134 134 128 124 122
154 157 156 156 156 158 158 159 158 158 159 161 161 160 160 160 160 161 160 160 161 158 155 155 153 150 148 148 146 143 135 123 117 112 107 103 95 78 64 58 56 54 56 56 61 69 73 77 76 77 82 85 85 85 84 86 88 87 92 98 101 102 106 108 109 111 109 110 114 115 117 121 119 116 116 120 122 122 128 131 133 135 130 128 127
155 157 158 159 157 157 158 159 160 160 161 162 163 162 163 163 164 165 165 166 167 165 164 164 159 155 154 154 152 146 137 128 122 117 110 103 89 71 60 54 52 51 53 56 62 69 76 79 77 79 84 88 92 93 88 85 84 82 86 91 93 95 100 105 108 112 108 108 116 119 119 123 127 126 121 122 124 126 128 128 131 133 132 135 133
155 158 160 161 158 159 160 160 162 163 164 163 164 165 165 166 167 169 170 171 171 170 169 166 158 155 156 156 156 149 141 136 130 122 110 97 85 69 58 49 47 49 52 58 67 74 81 83 79 82 86 89 94 96 90 84 81 79 83 92 96 98 99 101 105 113 110 110 123 127 121 124 130 132 130 129 127 129 128 125 129 133 135 139 138
156 159 161 162 160 160 162 162 164 164 165 164 166 167 167 167 169 171 171 172 171 170 168 163 158 153 156 157 158 153 147 145 139 125 106 95 86 69 55 46 46 50 53 61 72 81 87 87 83 87 90 89 91 93 90 84 82 80 83 92 96 98 99 99 102 111 111 111 124 127 123 126 133 136 138 136 131 130 129 127 129 134 138 142 142
157 159 160 161 161 162 164 165 165 165 165 165 167 167 168 169 170 170 170 171 170 168 164 162 159 156 159 160 162 160 154 152 146 129 108 100 85 66 54 46 50 51 55 64 78 89 93 93 90 94 95 93 92 92 91 87 87 82 80 87 90 93 91 88 91 102 108 110 118 121 126 130 134 137 140 142 138 135 135 134 134 137 142 145 147
158 159 159 160 163 164 166 167 166 166 167 167 169 170 171 170 169 169 168 169 168 166 165 164 163 162 164 162 165 165 160 157 148 131 111 101 84 68 56 49 53 54 59 71 86 96 98 98 96 98 101 101 99 94 89 84 82 75 69 75 89 94 89 84 82 92 104 112 119 121 127 132 135 136 141 146 147 145 143 141 142 143 145 148 150
161 162 162 162 164 166 167 167 168 168 170 172 173 174 173 172 171 169 169 170 169 168 168 167 167 166 165 163 165 167 164 158 144 126 112 103 88 75 66 67 68 62 66 79 95 103 102 102 99 99 102 103 96 87 79 72 68 63 63 70 88 93 90 96 93 91 106 114 120 127 128 128 133 138 144 151 154 155 150 146 146 147 148 150 151
164 166 166 166 165 167 168 168 169 170 172 174 174 175 174 174 173 173 173 173 173 173 172 171 170 167 167 166 166 167 165 158 143 128 115 104 91 80 79 87 84 74 78 91 102 107 106 104 101 100 100 96 84 78 72 67 66 59 60 69 80 75 67 91 100 100 112 112 112 125 134 132 135 144 150 156 161 161 157 151 151 153 151 152 152
168 170 169 169 169 169 170 170 171 171 173 173 173 174 173 175 176 176 176 176 177 176 175 173 172 170 171 170 169 169 166 158 144 128 115 102 90 84 85 89 89 85 90 101 106 109 110 106 104 105 103 93 75 73 63 58 60 51 53 61 63 59 52 64 96 115 115 107 104 116 131 142 148 152 155 161 167 167 165 158 155 158 156 155 154
173 174 173 172 172 173 173 172 172 172 172 172 173 173 173 176 177 178 177 178 178 177 177 176 176 174 174 174 172 170 164 156 143 126 111 101 92 86 85 86 90 90 98 111 112 110 109 107 108 110 111 102 71 65 49 42 44 43 58 66 63 66 63 59 71 117 127 106 100 111 125 143 155 160 161 164 170 172 171 166 162 163 162 162 160
177 176 177 177 176 176 175 175 174 173 173 172 173 173 173 176 177 177 178 178 178 178 178 177 178 176 176 176 170 168 162 152 141 127 113 105 96 90 87 84 89 94 106 122 123 116 110 113 116 117 122 106 69 59 47 43 37 43 69 69 66 72 69 59 54 70 122 111 90 110 126 140 156 164 168 168 173 175 175 174 170 169 168 167 166
180 180 180 180 179 177 177 177 175 174 175 174 175 175 175 175 176 178 178 179 179 179 179 177 178 175 174 173 168 166 157 152 146 136 130 115 104 97 87 81 90 100 114 128 133 130 119 116 114 117 124 101 82 55 44 44 36 47 71 64 67 69 64 60 47 46 66 82 73 111 131 141 159 165 169 174 175 178 180 180 177 175 174 172 172
180 181 181 182 182 180 180 179 177 177 177 178 179 179 177 176 177 179 180 180 181 179 178 177 175 174 173 171 171 166 158 157 154 151 151 132 120 113 95 88 98 105 120 128 131 135 126 117 111 113 106 82 79 49 33 29 31 52 69 71 80 68 52 48 36 26 30 48 71 106 142 147 166 170 172 178 178 179 183 184 182 178 177 177 178
179 181 183 183 183 183 183 181 182 181 181 182 182 182 179 179 180 180 181 181 181 179 178 177 174 175 174 173 173 168 164 160 153 158 155 140 139 125 100 95 99 101 117 124 123 126 118 113 115 106 81 52 52 42 26 20 41 72 67 74 87 76 47 30 26 19 7 9 51 51 194 166 172 175 175 183 185 182 183 187 187 182 180 182 183
180 183 183 183 183 185 184 183 184 184 184 185 184 184 182 181 181 180 182 181 182 181 179 178 177 177 176 174 174 173 172 164 154 157 154 149 159 128 97 91 91 99 116 123 128 127 117 120 129 111 84 48 33 32 28 33 67 104 63 69 75 77 64 32 37 35 29 39 66 70 174 202 187 185 182 186 191 186 184 187 189 187 183 185 187
182 184 183 183 184 185 185 185 186 185 185 185 185 185 184 183 182 182 183 182 183 182 180 179 178 178 180 176 174 176 174 167 160 162 161 164 168 129 100 95 101 115 122 128 145 155 156 155 166 176 222 4 33 31 47 53 97 101 85 94 75 55 62 67 64 49 45 62 74 71 61 36 206 196 191 191 194 191 188 187 189 191 188 186 187
183 185 184 184 186 186 186 187 186 186 184 183 185 185 185 183 183 185 184 184 184 182 180 180 180 181 183 177 174 179 174 168 166 170 175 174 161 123 107 116 129 135 138 136 160 179 184 194 205 230 276 312 35 54 65 87 124 103 107 124 96 50 49 64 68 40 26 59 67 59 51 48 332 208 200 200 198 196 193 189 189 192 192 189 187
186 187 186 186 187 186 186 188 186 186 184 183 186 185 186 184 185 187 184 186 184 180 181 181 182 184 183 178 178 181 175 173 178 183 189 184 161 133 136 154 170 181 182 183 188 195 210 235 233 251 288 310 336 26 70 144 150 123 123 126 116 62 19 24 33 9 323 23 60 58 57 59 55 199 204 205 205 203 195 192 193 193 194 193 191
188 188 186 186 187 187 188 189 187 186 184 184 186 186 187 186 186 186 185 187 183 179 182 183 185 186 185 182 181 182 182 183 191 195 200 200 184 182 218 217 214 212 196 204 206 208 229 245 244 275 285 294 305 16 125 175 170 147 138 133 131 103 2 1 19 16 199 212 104 76 69 66 67 101 191 202 210 210 199 195 197 195 195 195 195
190 189 187 187 188 189 190 189 188 188 186 187 187 187 188 188 186 185 187 186 181 180 182 184 188 188 186 185 185 191 198 198 201 208 214 217 212 219 239 234 234 231 211 217 218 218 232 248 265 283 271 273 267 159 159 186 187 175 167 172 157 102 24 17 15 339 181 176 151 97 75 67 74 92 156 189 205 206 201 202 203 200 200 198 196
193 191 189 189 190 191 191 191 191 190 191 190 188 189 189 188 187 186 188 186 184 184 182 183 187 185 183 184 187 196 208 210 212 225 233 237 240 245 251 247 247 240 232 233 226 226 239 265 289 270 245 247 220 160 155 166 178 199 205 206 182 148 181 209 335 306 190 159 155 144 125 87 70 90 136 175 196 203 202 206 207 205 206 204 201
195 195 192 192 192 192 193 193 193 194 195 193 190 191 190 188 190 189 188 186 187 187 184 183 183 182 183 187 191 199 209 214 219 236 247 250 247 251 255 254 253 244 242 243 229 231 254 274 267 229 224 232 209 174 162 155 153 193 209 189 169 171 190 210 308 5 155 153 162 188 187 207 261 293 142 171 188 201 204 207 206 206 207 208 208
196 197 196 195 194 193 194 195 196 197 198 196 192 193 192 190 192 192 190 190 191 190 187 187 186 187 190 195 201 206 211 215 225 242 250 249 245 247 250 248 249 243 242 248 236 232 250 260 257 232 220 229 215 186 174 169 156 163 202 193 173 172 185 200 28 65 78 142 184 228 219 234 256 267 277 197 188 197 208 212 209 209 211 209 210
198 198 198 197 196 196 196 196 197 198 200 199 194 194 194 193 195 195 192 193 195 194 193 192 193 198 203 205 212 217 217 221 234 247 252 250 245 242 243 240 241 239 239 245 236 229 242 257 267 252 233 231 210 193 189 193 192 163 173 190 184 177 192 176 111 93 47 69 128 149 110 20 262 251 233 206 196 198 215 220 214 217 219 216 215
201 199 199 199 199 199 199 199 200 199 201 200 197 196 196 195 198 198 196 196 198 198 198 196 197 206 214 216 221 228 229 232 243 251 253 250 245 239 238 235 236 240 241 246 244 235 246 264 271 257 240 228 202 198 201 207 224 198 167 180 194 200 217 210 159 152 63 61 99 108 80 70 79 214 208 209 206 205 227 222 210 215 216 216 219
203 202 199 199 203 202 201 201 201 201 202 202 200 199 200 200 200 202 200 201 203 203 201 202 204 209 217 222 225 231 234 238 244 248 248 246 244 240 236 235 237 241 240 248 254 245 255 269 269 248 236 229 210 204 208 222 241 210 186 193 210 213 228 242 220 193 182 173 127 109 87 82 83 85 169 217 215 216 235 219 201 211 212 217 221
206 207 203 202 205 204 203 203 203 202 203 204 204 203 204 204 203 204 205 207 209 208 207 208 209 212 219 224 227 230 231 234 237 239 239 238 239 238 236 237 238 239 240 250 257 253 260 266 263 245 230 230 227 223 232 245 235 197 195 203 209 213 229 250 227 194 181 202 200 133 101 90 86 86 93 113 174 217 239 231 222 219 216 222 222
206 210 208 206 207 206 204 205 205 203 203 205 206 206 205 205 204 205 208 211 211 209 210 212 211 215 220 223 226 226 225 228 230 232 235 235 235 235 236 238 239 241 245 252 257 256 259 259 247 233 232 242 246 235 237 236 204 183 187 192 198 213 234 247 211 188 181 190 195 164 140 116 98 88 79 79 82 137 237 239 228 215 209 215 222
208 209 209 208 209 208 206 207 206 204 204 204 205 205 203 204 206 208 209 210 210 209 212 214 214 216 220 221 221 222 224 227 229 230 233 236 236 234 235 238 241 244 246 252 257 253 248 243 226 226 240 239 217 192 184 179 181 185 188 193 199 211 237 228 186 182 194 193 193 184 179 185 166 5 10 37 41 61 206 209 194 194 196 201 218
208 209 210 210 211 211 209 209 206 205 205 203 204 203 202 203 206 208 209 208 208 210 213 215 216 217 220 222 222 224 225 226 229 230 232 237 235 234 235 237 241 242 244 250 251 242 227 221 224 230 221 190 167 154 150 154 174 187 193 198 201 201 204 181 167 170 191 186 188 192 191 196 252 312 315 330 348 344 250 201 171 169 180 187 201
207 210 212 213 212 213 213 211 208 207 207 206 206 205 205 207 208 208 209 208 209 211 214 216 217 218 220 223 224 226 226 225 228 229 231 234 234 236 236 234 235 237 242 247 241 224 211 220 232 222 188 170 159 146 141 154 172 183 192 198 194 182 166 164 167 160 174 180 179 183 187 194 267 333 343 342 346 353 352 242 194 185 189 192 199
208 210 212 213 212 212 214 213 211 210 209 208 209 209 209 211 214 213 211 211 213 214 216 218 219 219 221 223 224 224 225 225 227 230 231 232 234 238 237 234 232 235 242 244 228 209 212 229 230 203 186 172 159 153 153 162 173 177 183 190 184 175 165 168 176 172 185 189 178 172 186 237 8 30 13 319 323 359 37 108 188 226 232 225 225
208 209 210 212 213 213 215 214 213 212 211 210 211 212 213 214 217 218 216 216 217 218 218 220 221 222 223 225 224 222 222 224 227 230 232 235 238 238 239 236 232 236 241 233 215 209 223 230 210 191 184 173 163 165 170 174 180 182 182 182 182 184 184 180 172 173 187 190 183 190 245 326 34 38 351 309 358 66 79 85 67 47 30 347 305
210 211 211 213 214 215 216 215 214 213 212 210 211 213 213 214 215 217 218 217 218 219 218 219 221 223 226 228 227 225 224 225 227 229 233 239 241 239 237 235 234 237 236 223 210 216 226 212 194 187 180 174 169 167 169 173 183 193 196 190 186 197 202 185 159 160 179 186 189 209 243 275 321 2 19 103 97 78 65 56 52 44 28 8 351
213 215 216 215 215 216 217 216 215 214 214 212 211 212 213 213 213 214 214 214 215 218 219 219 221 224 227 228 229 229 227 228 228 230 234 240 241 237 232 232 235 234 227 218 211 218 218 195 184 185 182 182 181 174 170 169 177 192 208 208 200 205 204 189 168 161 177 189 190 196 222 243 256 270 160 123 114 68 26 29 32 16 3 356 347
215 218 218 217 216 216 217 218 218 216 215 213 211 212 214 213 214 215 214 214 216 218 220 221 223 227 229 229 229 229 228 230 230 232 235 238 240 235 229 231 232 227 221 218 213 214 211 191 183 185 186 190 191 190 184 178 182 193 205 209 209 212 205 195 182 167 174 187 192 205 222 222 224 236 230 208 251 289 339 357 4 357 352 356 0
215 216 217 218 218 218 219 220 220 218 218 216 214 214 215 215 213 215 216 217 218 221 222 221 223 226 227 227 226 226 227 230 232 233 234 234 236 233 229 228 224 219 217 217 212 207 203 193 188 187 190 198 200 199 195 191 197 206 203 201 207 213 207 198 192 178 177 183 188 207 219 218 219 226 244 258 266 280 315 341 351 348 345 353 7
214 216 217 219 220 220 220 219 219 220 220 219 217 217 218 217 215 214 216 217 220 224 224 223 222 221 221 221 221 221 224 229 232 231 229 229 231 231 225 220 217 215 211 211 210 206 204 200 196 191 195 207 207 204 204 202 204 210 206 195 195 204 205 203 202 194 191 191 188 199 206 208 214 219 232 244 254 273 299 333 340 335 333 342 351
213 216 219 220 221 220 219 218 218 219 220 221 221 220 220 220 218 216 216 217 218 221 223 224 222 219 218 218 219 220 223 227 228 225 223 224 227 225 218 214 215 212 206 207 210 211 211 209 204 203 206 211 210 208 212 213 211 209 205 196 192 198 201 204 208 206 204 203 195 186 187 193 204 208 215 229 244 265 288 317 325 321 320 327 333
212 215 217 219 220 220 219 218 217 217 219 221 222 223 223 223 223 220 219 219 219 219 220 220 221 220 219 220 220 221 223 227 227 222 220 220 222 220 215 215 215 208 206 211 214 216 215 209 207 211 216 216 216 217 218 218 216 211 210 207 200 199 201 203 206 206 207 210 204 181 170 178 192 198 204 215 227 249 279 300 307 309 314 319 323